CW9206 Weather Reports


time (UTC)temp
F
wind
direction
speed
knots
gust
knots
rain 1hr
in
rain 24hr
in
rain mn
in
humidity
%
barometer
mb
20220627211750 96 286 0.0 11.3 0.00 0.00 0.00 32 1011.2
20220627211251 96 291 0.0 11.3 0.00 0.00 0.00 32 1011.3
20220627210750 96 289 0.9 8.7 0.00 0.00 0.00 31 1011.2
20220627210250 96 304 3.5 11.3 0.00 0.00 0.00 31 1011.2
20220627205751 97 237 6.1 11.3 0.00 0.00 0.00 31 1011.2
20220627205251 97 292 2.6 9.6 0.00 0.00 0.00 31 1011.2
20220627204751 96 305 0.0 9.6 0.00 0.00 0.00 31 1011.3
20220627204250 97 264 1.7 9.6 0.00 0.00 0.00 31 1011.4
20220627203750 97 294 1.7 7.8 0.00 0.00 0.00 31 1011.3
20220627203250 97 258 0.0 7.8 0.00 0.00 0.00 31 1011.3
20220627202751 97 246 3.5 7.8 0.00 0.00 0.00 31 1011.3
20220627202250 97 290 6.1 8.7 0.00 0.00 0.00 32 1011.4
20220627201751 96 290 0.9 8.7 0.00 0.00 0.00 32 1011.5
20220627201250 95 245 3.5 8.7 0.00 0.00 0.00 33 1011.5
20220627200750 95 214 1.7 7.8 0.00 0.00 0.00 32 1011.5
20220627200251 95 210 0.0 7.8 0.00 0.00 0.00 33 1011.6
20220627195750 95 199 0.0 7.8 0.00 0.00 0.00 33 1011.7
20220627195250 94 245 0.0 7.8 0.00 0.00 0.00 33 1011.7
20220627194750 94 290 2.6 8.7 0.00 0.00 0.00 34 1011.8
20220627194251 94 276 0.0 8.7 0.00 0.00 0.00 34 1011.8
20220627193750 93 294 0.9 6.1 0.00 0.00 0.00 34 1011.9
20220627193250 93 271 4.3 6.1 0.00 0.00 0.00 35 1012.0
20220627192750 93 223 0.0 6.1 0.00 0.00 0.00 35 1012.2
20220627192250 93 256 0.0 6.1 0.00 0.00 0.00 35 1012.3
20220627191750 93 244 0.9 6.1 0.00 0.00 0.00 35 1012.3
20220627191251 93 240 1.7 5.2 0.00 0.00 0.00 34 1012.3
20220627190750 92 254 3.5 5.2 0.00 0.00 0.00 34 1012.3
20220627190250 93 259 0.9 5.2 0.00 0.00 0.00 34 1012.4
20220627185750 92 267 0.0 5.2 0.00 0.00 0.00 34 1012.3
20220627185250 92 271 1.7 6.1 0.00 0.00 0.00 34 1012.4
20220627184750 92 287 3.5 6.1 0.00 0.00 0.00 34 1012.5
20220627184250 92 287 2.6 5.2 0.00 0.00 0.00 33 1012.5
20220627183750 91 287 0.9 5.2 0.00 0.00 0.00 35 1012.6
20220627183250 91 306 0.9 6.1 0.00 0.00 0.00 35 1012.5
20220627182750 91 309 0.9 6.1 0.00 0.00 0.00 35 1012.7
20220627182250 90 292 4.3 5.2 0.00 0.00 0.00 36 1012.7
20220627181750 90 292 0.9 5.2 0.00 0.00 0.00 37 1012.6
20220627181250 89 292 0.9 4.3 0.00 0.00 0.00 37 1012.6
20220627180750 89 294 0.0 4.3 0.00 0.00 0.00 38 1012.7
20220627180250 87 294 3.5 4.3 0.00 0.00 0.00 39 1012.8
20220627175750 86 294 0.9 3.5 0.00 0.00 0.00 40 1012.8
20220627175250 85 294 0.9 4.3 0.00 0.00 0.00 41 1012.8
20220627174750 85 294 1.7 4.3 0.00 0.00 0.00 41 1012.8
20220627174250 84 294 0.9 3.5 0.00 0.00 0.00 42 1012.9
20220627173750 83 294 0.0 5.2 0.00 0.00 0.00 43 1012.8
20220627173250 82 294 2.6 5.2 0.00 0.00 0.00 44 1012.8
20220627172750 82 294 0.9 5.2 0.00 0.00 0.00 44 1012.8
20220627172250 81 296 0.0 3.5 0.00 0.00 0.00 46 1012.8
20220627171750 81 295 0.0 3.5 0.00 0.00 0.00 46 1012.8
20220627171251 79 296 0.0 1.7 0.00 0.00 0.00 47 1013.1
20220627170750 78 296 0.0 2.6 0.00 0.00 0.00 48 1013.1
20220627170250 77 296 0.0 3.5 0.00 0.00 0.00 50 1013.0
20220627165750 76 295 0.0 3.5 0.00 0.00 0.00 51 1013.1
20220627165250 76 296 0.0 0.9 0.00 0.00 0.00 52 1013.2
20220627164750 75 296 0.0 2.6 0.00 0.00 0.00 54 1013.2
20220627164250 74 296 0.0 2.6 0.00 0.00 0.00 56 1013.3
20220627163750 73 296 0.0 3.5 0.00 0.00 0.00 59 1013.3
20220627163250 72 296 0.9 3.5 0.00 0.00 0.00 60 1013.3
20220627162750 71 296 0.0 0.0 0.00 0.00 0.00 61 1013.3
20220627162250 70 295 0.0 0.9 0.00 0.00 0.00 63 1013.4
20220627161750 69 296 0.0 0.9 0.00 0.00 0.00 66 1013.5
20220627161250 67 296 0.0 0.0 0.00 0.00 0.00 68 1013.5
20220627160750 66 296 0.0 0.0 0.00 0.00 0.00 70 1013.6
20220627160250 65 295 0.0 0.0 0.00 0.00 0.00 73 1013.5
20220627155749 65 295 0.0 0.0 0.00 0.00 0.00 74 1013.8
20220627155250 64 296 0.0 1.7 0.00 0.00 0.00 75 1013.9
20220627154750 63 295 0.0 1.7 0.00 0.00 0.00 76 1013.9
20220627154249 63 295 0.0 0.9 0.00 0.00 0.00 79 1013.8
20220627153750 62 296 0.0 0.9 0.00 0.00 0.00 80 1013.7
20220627153250 61 296 0.0 1.7 0.00 0.00 0.00 81 1013.7
20220627152749 61 296 0.0 1.7 0.00 0.00 0.00 82 1013.8
20220627152249 61 295 0.0 1.7 0.00 0.00 0.00 82 1013.9
20220627151750 60 295 0.0 1.7 0.00 0.00 0.00 83 1014.0
20220627151249 60 296 0.9 1.7 0.00 0.00 0.00 85 1013.8
20220627150750 59 295 0.0 0.0 0.00 0.00 0.00 85 1013.8
20220627150250 59 296 0.0 0.0 0.00 0.00 0.00 86 1013.8
20220627145749 58 296 0.0 0.0 0.00 0.00 0.00 87 1013.7
20220627145250 58 296 0.0 0.0 0.00 0.00 0.00 87 1013.7
20220627144750 57 295 0.0 0.0 0.00 0.00 0.00 87 1013.6
20220627144250 57 296 0.0 0.0 0.00 0.00 0.00 88 1013.7
20220627143750 56 296 0.0 1.7 0.00 0.00 0.00 88 1013.7
20220627143249 56 295 0.0 1.7 0.00 0.00 0.00 88 1013.7
20220627142749 56 295 1.7 1.7 0.00 0.00 0.00 88 1013.7
20220627142249 55 296 0.0 0.0 0.00 0.00 0.00 88 1013.4
20220627141750 55 296 0.0 0.0 0.00 0.00 0.00 88 1013.6
20220627141249 55 296 0.0 0.0 0.00 0.00 0.00 88 1013.7
20220627140750 55 295 0.0 0.0 0.00 0.00 0.00 88 1013.7
20220627140250 55 296 0.0 0.0 0.00 0.00 0.00 88 1013.7
20220627135750 55 296 0.0 0.0 0.00 0.00 0.00 88 1013.8
20220627135249 55 295 0.0 0.0 0.00 0.00 0.00 88 1013.7
20220627134750 54 296 0.0 0.0 0.00 0.00 0.00 88 1013.7
20220627134250 54 296 0.0 0.0 0.00 0.00 0.00 88 1013.7
20220627133750 54 295 0.0 0.0 0.00 0.00 0.00 88 1013.6
20220627133249 54 295 0.0 0.0 0.00 0.00 0.00 88 1013.7
20220627132749 54 296 0.0 0.0 0.00 0.00 0.00 88 1013.6
20220627132250 54 296 0.0 0.0 0.00 0.00 0.00 88 1013.6
20220627131749 54 295 0.0 0.0 0.00 0.00 0.00 88 1013.7
20220627131249 54 296 0.0 0.0 0.00 0.00 0.00 87 1013.7
20220627130749 54 295 0.0 0.0 0.00 0.00 0.00 87 1013.7
20220627130250 54 296 0.0 0.0 0.00 0.00 0.00 87 1013.7
20220627125749 54 295 0.0 0.0 0.00 0.00 0.00 87 1013.8
20220627125249 54 296 0.0 0.0 0.00 0.00 0.00 88 1013.9
20220627124749 54 296 0.0 0.0 0.00 0.00 0.00 88 1013.8
20220627124250 54 296 0.0 0.0 0.00 0.00 0.00 88 1013.8
20220627123750 54 295 0.0 0.0 0.00 0.00 0.00 88 1013.8
20220627123249 55 296 0.0 0.0 0.00 0.00 0.00 88 1013.8
20220627122750 55 296 0.0 0.0 0.00 0.00 0.00 88 1013.8
20220627122249 55 295 0.0 0.0 0.00 0.00 0.00 88 1013.7
20220627121750 55 295 0.0 0.0 0.00 0.00 0.00 88 1013.8
20220627121250 55 296 0.0 0.0 0.00 0.00 0.00 88 1013.6
20220627120750 55 296 0.0 0.0 0.00 0.00 0.00 88 1013.5
20220627120250 55 296 0.0 0.0 0.00 0.00 0.00 88 1013.5
20220627115749 55 295 0.0 0.0 0.00 0.00 0.00 88 1013.5
20220627115249 55 296 0.0 0.0 0.00 0.00 0.00 88 1013.6
20220627114749 55 296 0.0 0.0 0.00 0.00 0.00 88 1013.4
20220627114249 55 295 0.0 0.0 0.00 0.00 0.00 88 1013.4
20220627113749 55 296 0.0 0.0 0.00 0.00 0.00 88 1013.4
20220627113250 55 296 0.0 0.0 0.00 0.00 0.00 88 1013.4
20220627112750 55 296 0.0 0.0 0.00 0.00 0.00 88 1013.4
20220627112249 55 295 0.0 0.0 0.00 0.00 0.00 88 1013.5
20220627111749 55 296 0.0 0.0 0.00 0.00 0.00 87 1013.4
20220627111250 55 296 0.0 0.0 0.00 0.00 0.00 87 1013.4
20220627110749 55 296 0.0 0.0 0.00 0.00 0.00 87 1013.4
20220627110250 55 295 0.0 0.0 0.00 0.00 0.00 88 1013.3
20220627105750 55 296 0.0 0.0 0.00 0.00 0.00 87 1013.3
20220627105250 55 296 0.0 0.0 0.00 0.00 0.00 88 1013.4
20220627104749 55 296 0.0 0.0 0.00 0.00 0.00 88 1013.3
20220627104249 55 295 0.0 0.0 0.00 0.00 0.00 88 1013.3
20220627103749 55 296 0.0 0.0 0.00 0.00 0.00 88 1013.3
20220627103249 55 296 0.0 0.0 0.00 0.00 0.00 88 1013.4
20220627102750 55 295 0.0 0.0 0.00 0.00 0.00 88 1013.4
20220627102249 54 296 0.0 0.0 0.00 0.00 0.00 88 1013.3
20220627101750 54 296 0.0 0.0 0.00 0.00 0.00 88 1013.4
20220627101250 54 295 0.0 0.0 0.00 0.00 0.00 88 1013.4
20220627100749 54 295 0.0 0.0 0.00 0.00 0.00 88 1013.4
20220627100249 54 296 0.0 0.0 0.00 0.00 0.00 88 1013.4
20220627095749 54 296 0.0 0.0 0.00 0.00 0.00 87 1013.3
20220627095249 54 295 0.0 0.0 0.00 0.00 0.00 87 1013.3
20220627094749 54 296 0.0 0.0 0.00 0.00 0.00 87 1013.3
20220627094249 54 296 0.0 0.0 0.00 0.00 0.00 87 1013.2
20220627093749 54 296 0.0 0.9 0.00 0.00 0.00 87 1013.2
20220627093249 54 295 0.0 0.9 0.00 0.00 0.00 87 1013.2
20220627092749 54 296 0.0 0.0 0.00 0.00 0.00 87 1013.2
20220627092249 54 296 0.0 0.0 0.00 0.00 0.00 87 1013.2
20220627091749 54 295 0.0 0.0 0.00 0.00 0.00 87 1013.1
20220627091249 54 295 0.0 0.0 0.00 0.00 0.00 87 1013.2
20220627090749 54 296 0.0 0.0 0.00 0.00 0.00 87 1013.1
20220627090249 54 296 0.0 0.0 0.00 0.00 0.00 87 1013.1
20220627085749 54 295 0.0 0.0 0.00 0.00 0.00 86 1013.0
20220627085249 54 296 0.0 0.0 0.00 0.00 0.00 86 1013.0
20220627084749 55 296 0.0 0.0 0.00 0.00 0.00 86 1013.0
20220627084249 55 296 0.0 0.0 0.00 0.00 0.00 86 1013.0
20220627083749 55 295 0.0 0.0 0.00 0.00 0.00 86 1013.0
20220627083249 55 295 0.0 0.0 0.00 0.00 0.00 86 1013.0
20220627082749 55 296 0.0 0.0 0.00 0.00 0.00 86 1013.1
20220627082249 55 296 0.0 0.0 0.00 0.00 0.00 86 1013.1
20220627081749 55 295 0.0 0.0 0.00 0.00 0.00 86 1013.1
20220627081249 55 296 0.0 0.0 0.00 0.00 0.00 86 1013.1
20220627080749 55 296 0.0 0.0 0.00 0.00 0.00 86 1013.0
20220627080249 55 296 0.0 0.0 0.00 0.00 0.00 86 1013.0
20220627075749 55 295 0.0 0.0 0.00 0.00 0.00 85 1013.2
20220627075249 55 295 0.0 0.0 0.00 0.00 0.00 85 1013.2
20220627074749 55 296 0.0 0.0 0.00 0.00 0.00 85 1013.3
20220627074249 55 295 0.0 0.0 0.00 0.00 0.00 85 1013.1
20220627073749 56 296 0.0 0.0 0.00 0.00 0.00 85 1013.1
20220627073249 56 296 0.0 0.0 0.00 0.00 0.00 85 1013.2
20220627072749 56 296 0.0 0.0 0.00 0.00 0.00 85 1013.2
20220627072249 56 295 0.0 0.0 0.00 0.00 0.00 84 1013.1
20220627071749 56 295 0.0 0.0 0.00 0.00 0.00 84 1013.1
20220627071249 56 296 0.0 0.0 0.00 0.00 0.00 84 1013.0
20220627070749 56 296 0.0 0.0 0.00 0.00 0.00 84 1013.0
20220627070249 56 296 0.0 0.0 0.00 0.00 0.00 84 1013.0
20220627065749 56 296 0.0 0.0 0.00 0.00 0.00 83 1013.3
20220627065249 56 296 0.0 0.0 0.00 0.00 0.00 83 1013.3
20220627064749 57 296 0.0 0.0 0.00 0.00 0.00 83 1013.3
20220627064249 57 295 0.0 0.0 0.00 0.00 0.00 83 1013.3
20220627063749 57 296 0.0 0.0 0.00 0.00 0.00 83 1013.4
20220627063250 57 296 0.0 0.0 0.00 0.00 0.00 82 1013.4
20220627062749 57 296 0.0 0.0 0.00 0.00 0.00 82 1013.5
20220627062250 57 295 0.0 1.7 0.00 0.00 0.00 82 1013.5
20220627061749 57 295 0.0 1.7 0.00 0.00 0.00 81 1013.5
20220627061249 58 296 0.0 0.0 0.00 0.00 0.00 81 1013.5
20220627060749 58 295 0.0 0.0 0.00 0.00 0.00 81 1013.4
20220627060249 58 295 0.0 1.7 0.00 0.00 0.00 80 1013.5
20220627055749 58 296 0.0 1.7 0.00 0.00 0.00 80 1013.3
20220627055249 58 296 0.0 0.0 0.00 0.00 0.00 80 1013.4
20220627054749 58 295 0.0 0.0 0.00 0.00 0.00 79 1013.4
20220627054249 59 295 0.0 0.0 0.00 0.00 0.00 79 1013.4
20220627053749 59 296 0.0 0.0 0.00 0.00 0.00 79 1013.4
20220627053249 59 296 0.0 2.6 0.00 0.00 0.00 78 1013.3
20220627052749 59 295 0.0 2.6 0.00 0.00 0.00 78 1013.2
20220627052249 59 296 0.0 0.0 0.00 0.00 0.00 78 1013.3
20220627051749 59 296 0.0 0.0 0.00 0.00 0.00 77 1013.2
20220627051249 60 296 0.0 0.0 0.00 0.00 0.00 77 1013.3
20220627050749 60 295 0.0 0.9 0.00 0.00 0.00 76 1013.2
20220627050248 60 295 0.0 1.7 0.00 0.00 0.00 76 1013.2
20220627045750 60 296 0.0 1.7 0.00 0.00 0.00 75 1012.9
20220627045249 60 295 0.0 0.0 0.00 0.00 0.00 75 1012.9
20220627044748 61 296 0.0 0.0 0.00 0.00 0.00 75 1012.8
20220627044250 61 296 0.0 0.9 0.00 0.00 0.00 74 1012.7
20220627043749 61 296 0.0 0.9 0.00 0.00 0.00 74 1012.7
20220627043250 61 295 0.0 0.0 0.00 0.00 0.00 73 1012.7
20220627042749 62 295 0.0 2.6 0.00 0.00 0.00 73 1012.6
20220627042249 62 296 0.0 2.6 0.00 0.00 0.00 73 1012.6
20220627041749 62 296 0.0 0.0 0.00 0.00 0.00 72 1012.5
20220627041248 62 295 0.0 0.9 0.00 0.00 0.00 71 1012.5
20220627040748 63 296 0.0 1.7 0.00 0.00 0.00 71 1012.4
20220627040249 63 296 0.0 2.6 0.00 0.00 0.00 69 1012.2
20220627035750 64 295 0.0 2.6 0.00 0.00 0.00 69 1012.1
20220627035248 64 295 0.0 2.6 0.00 0.00 0.00 68 1012.2
20220627034748 65 296 0.0 2.6 0.00 0.00 0.00 67 1011.9
20220627034249 65 296 0.0 2.6 0.00 0.00 0.00 67 1011.9
20220627033749 66 295 0.0 0.9 0.00 0.00 0.00 66 1011.8
20220627033248 66 296 0.0 2.6 0.00 0.00 0.00 65 1011.9
20220627032749 66 296 0.0 3.5 0.00 0.00 0.00 65 1011.8
20220627032249 67 296 0.0 4.3 0.00 0.00 0.00 65 1011.7
20220627031749 67 296 0.0 4.3 0.00 0.00 0.00 64 1011.6
20220627031248 67 300 0.0 1.7 0.00 0.00 0.00 64 1011.5
20220627030749 68 300 0.0 1.7 0.00 0.00 0.00 64 1011.5
20220627030249 68 300 0.0 3.5 0.00 0.00 0.00 63 1011.3
20220627025748 68 300 0.0 3.5 0.00 0.00 0.00 62 1011.2
20220627025248 69 300 1.7 3.5 0.00 0.00 0.00 61 1011.1
20220627024749 69 305 0.0 3.5 0.00 0.00 0.00 61 1011.1
20220627024248 70 304 0.0 3.5 0.00 0.00 0.00 59 1011.0
20220627023748 71 304 0.0 3.5 0.00 0.00 0.00 58 1011.0
20220627023249 71 307 0.0 5.2 0.00 0.00 0.00 57 1010.8
20220627022748 72 312 0.9 5.2 0.00 0.00 0.00 56 1010.7
20220627022249 73 313 0.9 5.2 0.00 0.00 0.00 56 1010.7
20220627021749 73 213 0.0 5.2 0.00 0.00 0.00 55 1010.6
20220627021248 74 271 1.7 7.8 0.00 0.00 0.00 54 1010.6
20220627020749 75 267 3.5 7.8 0.00 0.00 0.00 52 1010.6
20220627020248 76 275 0.0 7.8 0.00 0.00 0.00 51 1010.6
20220627015749 77 259 1.7 5.2 0.00 0.00 0.00 49 1010.5
20220627015248 78 268 0.0 8.7 0.00 0.00 0.00 48 1010.6
20220627014748 79 269 0.0 8.7 0.00 0.00 0.00 47 1010.6
20220627014248 80 265 0.0 8.7 0.00 0.00 0.00 46 1010.6
20220627013748 81 258 0.9 7.8 0.00 0.00 0.00 45 1010.6
20220627013249 81 261 0.0 7.8 0.00 0.00 0.00 45 1010.5
20220627012749 82 277 2.6 5.2 0.00 0.00 0.00 44 1010.5
20220627012249 82 280 2.6 6.1 0.00 0.00 0.00 43 1010.5
20220627011748 83 331 0.9 6.1 0.00 0.00 0.00 43 1010.5
20220627011248 84 289 1.7 5.2 0.00 0.00 0.00 42 1010.4
20220627010748 84 309 3.5 6.1 0.00 0.00 0.00 42 1010.4
20220627010248 85 311 0.0 8.7 0.00 0.00 0.00 41 1010.5
20220627005749 86 256 1.7 8.7 0.00 0.00 0.00 40 1010.5
20220627005249 87 306 4.3 7.8 0.00 0.00 0.00 39 1010.5
20220627004748 88 268 1.7 7.8 0.00 0.00 0.00 38 1010.5
20220627004249 88 304 0.0 8.7 0.00 0.00 0.00 38 1010.5
20220627003748 88 265 0.0 8.7 0.00 0.00 0.00 39 1010.5
20220627003248 88 217 0.9 5.2 0.00 0.00 0.00 38 1010.6
20220627002749 88 213 0.0 5.2 0.00 0.00 0.00 38 1010.5
20220627002249 89 251 0.0 5.2 0.00 0.00 0.00 38 1010.5
20220627001748 89 265 2.6 7.8 0.00 0.00 0.00 37 1010.6
20220627001249 89 295 0.0 7.8 0.00 0.00 0.00 37 1010.5
20220627000748 89 319 4.3 6.1 0.00 0.00 0.00 37 1010.4
20220627000249 90 226 4.3 6.1 0.00 0.00 0.00 36 1010.5
20220626235748 90 263 1.7 4.3 0.00 0.00 0.00 35 1010.5
20220626235248 90 267 3.5 6.1 0.00 0.00 0.00 36 1010.6
20220626234748 90 269 0.0 6.1 0.00 0.00 0.00 37 1010.6
20220626234248 90 309 5.2 5.2 0.00 0.00 0.00 36 1010.6
20220626233748 90 297 0.0 7.8 0.00 0.00 0.00 36 1010.6
20220626233249 90 303 0.0 7.8 0.00 0.00 0.00 37 1010.6
20220626232749 90 253 0.9 5.2 0.00 0.00 0.00 36 1010.6
20220626232248 90 298 0.9 6.1 0.00 0.00 0.00 37 1010.7
20220626231748 89 248 2.6 7.8 0.00 0.00 0.00 37 1010.6
20220626231248 90 317 4.3 7.8 0.00 0.00 0.00 36 1010.7
20220626230748 90 279 4.3 7.8 0.00 0.00 0.00 37 1010.7
20220626230248 90 277 5.2 9.6 0.00 0.00 0.00 37 1010.7
20220626225748 90 272 3.5 9.6 0.00 0.00 0.00 37 1010.8
20220626225248 90 303 0.0 8.7 0.00 0.00 0.00 37 1010.8
20220626224749 90 248 0.0 8.7 0.00 0.00 0.00 37 1010.8
20220626224249 90 360 0.9 7.0 0.00 0.00 0.00 37 1010.8
20220626223748 90 275 0.0 7.8 0.00 0.00 0.00 37 1010.9
20220626223248 90 298 2.6 7.8 0.00 0.00 0.00 37 1010.9
20220626222748 91 265 4.3 8.7 0.00 0.00 0.00 36 1010.9
20220626222249 91 241 0.0 8.7 0.00 0.00 0.00 36 1010.8
20220626221749 91 252 3.5 9.6 0.00 0.00 0.00 36 1010.8
20220626221248 91 311 2.6 9.6 0.00 0.00 0.00 36 1010.9
20220626220748 91 236 2.6 8.7 0.00 0.00 0.00 36 1010.9
20220626220248 91 281 0.0 7.8 0.00 0.00 0.00 36 1010.9
20220626215748 90 269 0.9 7.8 0.00 0.00 0.00 36 1010.9
20220626215248 90 285 3.5 8.7 0.00 0.00 0.00 36 1010.9
20220626214748 91 301 1.7 8.7 0.00 0.00 0.00 36 1010.9
20220626214248 91 275 4.3 7.8 0.00 0.00 0.00 36 1010.9
20220626213748 90 277 4.3 7.8 0.00 0.00 0.00 37 1010.9
20220626213248 90 237 5.2 8.7 0.00 0.00 0.00 36 1011.0
20220626212748 90 286 2.6 8.7 0.00 0.00 0.00 36 1011.0
20220626212248 90 253 0.0 10.4 0.00 0.00 0.00 37 1011.0